Content
SEND FEEDBACK

Daily
Averages
Monthly
Summary
United States of America

ASATDAS, GUAM


Home > North America > United States > Guam
Elevation: 612 feet     Latitude: 13 35N     Longitude: 144 56E

WEATHER
 
SELECT A DAY
Number of Records: 213,081;   Date Range: 1/1/95 - 9/30/14
 
SHARE

PRINT THIS DATA

[ ← Previous Day ]
WEATHER ALMANAC - FEBRUARY 16, 2013
[ Next Day → ]
[ °C ]   °F
Weather ElementAverageHighLow
Temperature78.7 °F84.2 °F (1:12 pm)75.2 °F (8:26 am)
Dewpoint74.8 °F77 °F (9:44 am)71.1 °F (2:54 am)
Humidity87.7 %94 % (8:26 am)77 % (12:54 pm)
Barometer29.81 in29.86 in (9:44 am)29.74 in (3:54 am)
Wind Speed13.7 mph20.7 mph (2:10 pm)
Wind Gust26.5 mph (2:10 pm)
Weather ElementAverage
Visibility8 mi
Wind DirectionENE (71 °)

Weather ElementTotal
Precipitation0.78 in
Cooling Degree Days14.7 (Base 65)
Growing Degree Days29.7 (Base 50)
Averaged from 41 records on February 16, 2013
WEATHER CONDITIONS BREAKOUT
WIND DIRECTION BREAKOUT
WEATHER BY HOUR - FEBRUARY 16, 2013
[ °C ]   °F
Local TimeTemperatureDewpointHumidityBarometerVisibilityWind DirectionWind SpeedGust SpeedPrecipitationEventsConditions
1:54 AM79.2 °F72.0 °F78 %29.77 in10.0 miENE (70°)15.0 mphPartly Cloudy
2:54 AM75.9 °F71.1 °F85 %29.75 in10.0 miENE (60°)9.2 mphPartly Cloudy
3:54 AM79.0 °F72.1 °F79 %29.74 in10.0 miENE (60°)11.5 mphMostly Cloudy
4:54 AM79.2 °F73.2 °F82 %29.75 in10.0 miENE (70°)12.7 mph0.02 inScattered Clouds
5:54 AM77.5 °F73.4 °F87 %29.76 in10.0 miENE (70°)11.5 mphOvercast
6:54 AM77.5 °F74.1 °F89 %29.78 in10.0 miENE (60°)8.1 mph0.00 inRainLight Rain
7:54 AM77.5 °F74.1 °F89 %29.81 in10.0 miEast (80°)11.5 mph0.01 inMostly Cloudy
8:26 AM75.2 °F73.4 °F94 %29.85 in2.5 miENE (60°)16.1 mph21.9 mph0.00 inRainHeavy Rain
8:41 AM77.0 °F75.2 °F94 %29.85 in10.0 miENE (60°)11.5 mph0.03 inOvercast
8:54 AM77.9 °F75.2 °F91 %29.83 in10.0 miEast (80°)8.1 mph0.03 inOvercast
9:22 AM77.0 °F75.2 °F94 %29.85 in10.0 miENE (60°)13.8 mphMostly Cloudy
9:44 AM80.6 °F77.0 °F89 %29.86 in10.0 miENE (70°)13.8 mphMostly Cloudy
9:54 AM80.6 °F75.7 °F85 %29.83 in10.0 miENE (70°)15.0 mphMostly Cloudy
10:54 AM82.0 °F76.1 °F82 %29.83 in10.0 miNE (50°)17.3 mph20.7 mphOvercast
11:04 AM82.4 °F75.2 °F79 %29.85 in8.0 miESE (110°)18.4 mphMostly Cloudy
11:10 AM82.4 °F75.2 °F79 %29.85 in2.5 miESE (110°)10.4 mph23.0 mph0.00 inRainRain
11:21 AM77.0 °F75.2 °F94 %29.84 in3.0 miEast (80°)10.4 mph0.03 inRainLight Rain
11:26 AM77.0 °F75.2 °F94 %29.84 in2.5 miENE (70°)18.4 mph0.04 inRainHeavy Rain
11:29 AM77.0 °F75.2 °F94 %29.84 in1.5 miENE (70°)16.1 mph21.9 mph0.07 inRainHeavy Rain
11:36 AM77.0 °F75.2 °F94 %29.83 in2.0 miEast (80°)12.7 mph0.11 inRainLight Rain
11:45 AM77.0 °F75.2 °F94 %29.83 in10.0 miENE (60°)13.8 mph0.12 inOvercast
11:54 AM79.7 °F76.6 °F90 %29.80 in10.0 miEast (80°)16.1 mph19.6 mph0.12 inMostly Cloudy
12:54 PM82.9 °F75.0 °F77 %29.77 in10.0 miNE (50°)18.4 mphMostly Cloudy
1:12 PM84.2 °F77.0 °F79 %29.79 in10.0 miENE (60°)18.4 mphMostly Cloudy
1:54 PM78.3 °F75.6 °F91 %29.77 in3.0 miEast (90°)11.5 mph23.0 mph0.00 inRainHeavy Rain
2:01 PM77.0 °F75.2 °F94 %29.79 in2.0 miEast (100°)10.4 mph20.7 mph0.02 inRainLight Rain
2:10 PM77.0 °F75.2 °F94 %29.79 in4.0 miEast (80°)20.7 mph26.5 mph0.03 inRainLight Rain
2:22 PM77.0 °F75.2 °F94 %29.79 in3.0 miEast (80°)13.8 mph24.2 mph0.05 inRainLight Rain
2:44 PM78.8 °F75.2 °F89 %29.78 in10.0 miENE (70°)13.8 mph0.05 inMostly Cloudy
2:54 PM78.6 °F74.7 °F88 %29.76 in10.0 miENE (70°)18.4 mph24.2 mph0.05 inMostly Cloudy
3:54 PM82.2 °F75.6 °F80 %29.77 in10.0 miEast (80°)17.3 mph26.5 mphRainLight Rain
4:54 PM78.1 °F75.0 °F90 %29.78 in10.0 miEast (80°)17.3 mph0.00 inMostly Cloudy
5:54 PM80.1 °F74.7 °F83 %29.78 in10.0 miENE (70°)13.8 mphMostly Cloudy
6:54 PM78.4 °F74.1 °F87 %29.80 in10.0 miENE (70°)12.7 mphMostly Cloudy
7:54 PM78.6 °F74.5 °F87 %29.81 in10.0 miENE (70°)11.5 mphScattered Clouds
8:22 PM78.8 °F75.2 °F89 %29.84 in5.0 miENE (60°)12.7 mph0.00 inRainRain
8:31 PM78.8 °F75.2 °F89 %29.84 in9.0 miENE (60°)12.7 mph0.00 inRainLight Rain
8:54 PM78.3 °F74.7 °F89 %29.83 in10.0 miENE (60°)12.7 mph0.00 inScattered Clouds
9:54 PM78.4 °F74.7 °F88 %29.82 in10.0 miENE (60°)10.4 mphScattered Clouds
10:54 PM78.6 °F74.1 °F86 %29.82 in10.0 miENE (60°)10.4 mphPartly Cloudy
11:54 PM78.6 °F73.8 °F85 %29.82 in10.0 miENE (60°)13.8 mphPartly Cloudy
Hourly data recorded from PGUM, located miles away from Asatdas, Guam







STORIES FROM OUR PARTNERS